• In Russia
  • List of Countries
  • For 7 days
  • Water Temperature
  • Satellite Maps
  • Weather Map
  • Weather Widgets
  • user-avatar
    Login

    Hourly Weather Ali Bayramli

    Today, 17 February, Saturday

    Time Temperature Precipitation Wind Pressure Humidity
    00:00 +8°C° 0 mm 1 mps 769 mmHg 91%
    01:00 +8°C° 0 mm 1 mps 768 mmHg 92%
    02:00 +7°C° 0 mm 1 mps 768 mmHg 92%
    03:00 +7°C° 0 mm 1 mps 767 mmHg 93%
    04:00 +7°C° 0 mm 1 mps 767 mmHg 93%
    05:00 +7°C° 0 mm 1 mps 767 mmHg 93%
    06:00 +7°C° 0 mm 1 mps 767 mmHg 93%
    07:00 +7°C° 0 mm 1 mps 767 mmHg 90%
    08:00 +8°C° 0 mm 1 mps 767 mmHg 87%
    09:00 +9°C° 0 mm 1 mps 767 mmHg 85%
    10:00 +9°C° 0 mm 1 mps 766 mmHg 83%
    11:00 +8°C° 0 mm 2 mps 766 mmHg 81%
    12:00 +9°C° 0 mm 2 mps 765 mmHg 79%
    13:00 +9°C° 0 mm 2 mps 765 mmHg 77%
    14:00 +10°C° 0 mm 2 mps 764 mmHg 75%
    15:00 +10°C° 0 mm 3 mps 764 mmHg 77%
    16:00 +9°C° 0 mm 3 mps 764 mmHg 78%
    17:00 +9°C° 0 mm 3 mps 764 mmHg 80%
    18:00 +9°C° 0 mm 3 mps 764 mmHg 82%
    19:00 +9°C° 0 mm 2 mps 764 mmHg 84%
    20:00 +8°C° 0 mm 2 mps 764 mmHg 85%
    21:00 +8°C° 0 mm 2 mps 764 mmHg 86%
    22:00 +8°C° 0 mm 2 mps 763 mmHg 87%
    23:00 +8°C° 0 mm 2 mps 763 mmHg 88%

    Tomorrow, 18 February, Sunday

    Time Temperature Precipitation Wind Pressure Humidity
    00:00 +8°C° 0 mm 2 mps 763 mmHg 88%
    01:00 +8°C° 0 mm 2 mps 762 mmHg 88%
    02:00 +7°C° 0 mm 2 mps 762 mmHg 89%
    03:00 +7°C° 0 mm 2 mps 762 mmHg 89%
    04:00 +7°C° 0 mm 2 mps 761 mmHg 88%
    05:00 +7°C° 0 mm 2 mps 761 mmHg 87%
    06:00 +7°C° 0 mm 2 mps 761 mmHg 86%
    07:00 +7°C° 0.2 mm 2 mps 761 mmHg 85%
    08:00 +8°C° 0.2 mm 2 mps 761 mmHg 84%
    09:00 +8°C° 0.2 mm 2 mps 761 mmHg 83%
    10:00 +8°C° 0.8 mm 2 mps 760 mmHg 83%
    11:00 +8°C° 0.8 mm 2 mps 760 mmHg 83%
    12:00 +8°C° 0.8 mm 3 mps 760 mmHg 84%
    13:00 +6°C° 0.8 mm 4 mps 759 mmHg 84%
    14:00 +6°C° 0.8 mm 5 mps 759 mmHg 84%
    15:00 +6°C° 0.8 mm 5 mps 759 mmHg 85%
    16:00 +5°C° 1.7 mm 6 mps 759 mmHg 84%
    17:00 +5°C° 1.7 mm 7 mps 759 mmHg 84%
    18:00 +4°C° 1.7 mm 8 mps 760 mmHg 84%
    19:00 +4°C° 1.8 mm 8 mps 760 mmHg 84%
    20:00 +4°C° 1.8 mm 7 mps 760 mmHg 84%
    21:00 +4°C° 1.8 mm 7 mps 760 mmHg 84%
    22:00 +4°C° 0.4 mm 6 mps 760 mmHg 84%
    23:00 +4°C° 0.4 mm 6 mps 760 mmHg 84%

    Day after tomorrow, 19 February, Monday

    Time Temperature Precipitation Wind Pressure Humidity
    00:00 +4°C° 0.4 mm 6 mps 760 mmHg 84%
    01:00 +5°C° 0.2 mm 5 mps 760 mmHg 84%
    02:00 +5°C° 0.2 mm 5 mps 761 mmHg 85%
    03:00 +5°C° 0.2 mm 4 mps 761 mmHg 86%
    04:00 +4°C° 0.1 mm 4 mps 761 mmHg 86%
    05:00 +4°C° 0.1 mm 3 mps 761 mmHg 86%
    06:00 +4°C° 0.1 mm 3 mps 761 mmHg 87%
    07:00 +5°C° 0.1 mm 3 mps 761 mmHg 86%
    08:00 +5°C° 0.1 mm 3 mps 762 mmHg 85%
    09:00 +5°C° 0.1 mm 3 mps 762 mmHg 84%
    10:00 +7°C° 0 mm 3 mps 762 mmHg 82%
    11:00 +7°C° 0 mm 3 mps 762 mmHg 80%
    12:00 +7°C° 0 mm 3 mps 762 mmHg 78%
    13:00 +8°C° 0 mm 3 mps 762 mmHg 77%
    14:00 +8°C° 0 mm 3 mps 761 mmHg 75%
    15:00 +8°C° 0 mm 3 mps 761 mmHg 74%
    16:00 +8°C° 0 mm 3 mps 762 mmHg 76%
    17:00 +8°C° 0 mm 3 mps 762 mmHg 78%
    18:00 +8°C° 0 mm 3 mps 762 mmHg 79%
    19:00 +7°C° 0 mm 3 mps 762 mmHg 80%
    20:00 +7°C° 0 mm 3 mps 763 mmHg 81%
    21:00 +7°C° 0 mm 3 mps 763 mmHg 82%
    22:00 +5°C° 0.1 mm 3 mps 763 mmHg 83%
    23:00 +5°C° 0.1 mm 3 mps 763 mmHg 84%

    20 February, Tuesday

    Time Temperature Precipitation Wind Pressure Humidity
    00:00 +5°C° 0.1 mm 3 mps 763 mmHg 85%
    01:00 +6°C° 0 mm 2 mps 763 mmHg 86%
    02:00 +5°C° 0 mm 2 mps 763 mmHg 88%
    03:00 +5°C° 0 mm 2 mps 763 mmHg 89%
    04:00 +5°C° 0 mm 2 mps 763 mmHg 89%
    05:00 +5°C° 0 mm 2 mps 763 mmHg 90%
    06:00 +5°C° 0 mm 2 mps 763 mmHg 91%
    07:00 +6°C° 0 mm 2 mps 763 mmHg 88%
    08:00 +6°C° 0 mm 2 mps 763 mmHg 84%
    09:00 +7°C° 0 mm 3 mps 763 mmHg 81%
    10:00 +8°C° 0 mm 3 mps 763 mmHg 79%
    11:00 +8°C° 0 mm 3 mps 763 mmHg 76%
    12:00 +9°C° 0 mm 3 mps 762 mmHg 73%
    13:00 +9°C° 0 mm 3 mps 762 mmHg 72%
    14:00 +9°C° 0 mm 3 mps 762 mmHg 71%
    15:00 +10°C° 0 mm 3 mps 761 mmHg 70%
    16:00 +9°C° 0 mm 3 mps 762 mmHg 73%
    17:00 +9°C° 0 mm 3 mps 762 mmHg 75%
    18:00 +8°C° 0 mm 3 mps 762 mmHg 78%
    19:00 +8°C° 0 mm 3 mps 762 mmHg 79%
    20:00 +8°C° 0 mm 3 mps 762 mmHg 81%
    21:00 +8°C° 0 mm 3 mps 763 mmHg 82%
    22:00 +8°C° 0 mm 3 mps 763 mmHg 83%
    23:00 +8°C° 0 mm 3 mps 762 mmHg 84%

    21 February, Wednesday

    Time Temperature Precipitation Wind Pressure Humidity
    00:00 +8°C° 0 mm 2 mps 762 mmHg 85%
    01:00 +8°C° 0 mm 2 mps 762 mmHg 85%
    02:00 +7°C° 0 mm 2 mps 762 mmHg 86%
    03:00 +7°C° 0 mm 2 mps 762 mmHg 87%
    04:00 +7°C° 0.1 mm 2 mps 762 mmHg 87%
    05:00 +7°C° 0.1 mm 2 mps 762 mmHg 87%
    06:00 +7°C° 0.1 mm 2 mps 763 mmHg 87%
    07:00 +7°C° 0.1 mm 2 mps 763 mmHg 87%
    08:00 +8°C° 0.1 mm 2 mps 763 mmHg 86%
    09:00 +8°C° 0.1 mm 2 mps 763 mmHg 85%
    10:00 +8°C° 0 mm 2 mps 763 mmHg 83%
    11:00 +8°C° 0 mm 2 mps 763 mmHg 82%
    12:00 +9°C° 0 mm 2 mps 763 mmHg 80%
    13:00 +9°C° 0 mm 2 mps 762 mmHg 77%
    14:00 +10°C° 0 mm 2 mps 762 mmHg 74%
    15:00 +10°C° 0 mm 2 mps 762 mmHg 71%
    16:00 +10°C° 0 mm 3 mps 762 mmHg 74%
    17:00 +9°C° 0 mm 3 mps 763 mmHg 76%
    18:00 +9°C° 0 mm 3 mps 763 mmHg 79%
    19:00 +9°C° 0 mm 3 mps 763 mmHg 80%
    20:00 +8°C° 0 mm 3 mps 763 mmHg 81%
    21:00 +8°C° 0 mm 2 mps 764 mmHg 82%
    22:00 +8°C° 0 mm 2 mps 763 mmHg 83%
    23:00 +7°C° 0 mm 2 mps 763 mmHg 83%

    22 February, Thursday

    Time Temperature Precipitation Wind Pressure Humidity
    00:00 +7°C° 0 mm 2 mps 763 mmHg 83%
    01:00 +7°C° 0 mm 2 mps 763 mmHg 83%
    02:00 +7°C° 0 mm 2 mps 763 mmHg 83%
    03:00 +7°C° 0 mm 1 mps 763 mmHg 83%
    04:00 +7°C° 0 mm 1 mps 763 mmHg 83%
    05:00 +7°C° 0 mm 1 mps 763 mmHg 83%
    06:00 +7°C° 0 mm 1 mps 763 mmHg 83%
    07:00 +8°C° 0 mm 1 mps 763 mmHg 80%
    08:00 +8°C° 0 mm 1 mps 763 mmHg 76%
    09:00 +9°C° 0 mm 1 mps 763 mmHg 72%
    10:00 +10°C° 0 mm 1 mps 762 mmHg 69%
    11:00 +11°C° 0 mm 1 mps 762 mmHg 66%
    12:00 +11°C° 0 mm 1 mps 761 mmHg 64%
    13:00 +12°C° 0 mm 2 mps 761 mmHg 62%
    14:00 +12°C° 0 mm 2 mps 760 mmHg 61%
    15:00 +13°C° 0 mm 2 mps 760 mmHg 60%
    16:00 +12°C° 0 mm 2 mps 760 mmHg 64%
    17:00 +12°C° 0 mm 2 mps 760 mmHg 68%
    18:00 +10°C° 0 mm 2 mps 760 mmHg 73%
    19:00 +9°C° 0 mm 2 mps 761 mmHg 75%
    20:00 +9°C° 0 mm 2 mps 761 mmHg 78%
    21:00 +8°C° 0 mm 2 mps 761 mmHg 81%
    22:00 +8°C° 0 mm 2 mps 761 mmHg 84%
    23:00 +9°C° 0 mm 1 mps 760 mmHg 86%
    Show more